CW7769 Weather Reports


Display with metric or nautical units.
time (UTC)temp
F
wind
direction
speed
MPH
gust
MPH
rain 1hr
in
rain 24hr
in
rain mn
in
humidity
%
barometer
mb
20260507102756 53 244 0.0 0.0 0.00 0.49 0.07 70 1015.3
20260507101740 53 244 0.0 0.0 0.00 0.49 0.07 71 1015.1
20260507100708 53 244 0.0 0.0 0.00 0.49 0.07 72 1015.0
20260507095713 53 244 0.0 0.0 0.00 0.49 0.07 73 1015.0
20260507094659 53 244 0.0 0.0 0.00 0.49 0.07 73 1014.9
20260507093641 53 244 1.0 4.0 0.00 0.49 0.07 74 1014.8
20260507092610 53 245 0.0 2.0 0.00 0.49 0.07 76 1014.7
20260507091627 52 252 0.0 0.0 0.00 0.49 0.07 78 1014.6
20260507090639 52 252 0.0 0.0 0.00 0.49 0.07 79 1014.5
20260507085608 51 281 0.0 7.0 0.00 0.49 0.07 79 1014.4
20260507084629 51 277 0.0 3.0 0.00 0.49 0.07 79 1014.4
20260507083558 51 259 3.0 7.0 0.00 0.49 0.07 80 1014.4
20260507082554 51 279 2.0 7.0 0.00 0.49 0.07 80 1014.3
20260507081608 51 275 1.0 7.0 0.00 0.49 0.07 80 1014.3
20260507080533 50 302 1.0 7.0 0.00 0.49 0.07 80 1014.1
20260507075507 50 283 1.0 6.0 0.00 0.49 0.07 80 1014.0
20260507074521 51 319 2.0 6.0 0.00 0.49 0.07 93 1013.9
20260507072349 51 223 0.0 0.0 0.00 0.49 0.07 81 1013.7
20260507070209 51 221 1.0 3.0 0.00 0.49 0.07 80 1013.5
20260507065227 51 219 0.0 2.0 0.00 0.49 0.07 80 1013.4
20260507063128 50 219 0.0 4.0 0.00 0.49 0.07 80 1013.3
20260507062103 50 230 0.0 0.0 0.00 0.49 0.07 93 1013.2
20260507055945 50 230 0.0 2.0 0.00 0.49 0.07 80 1013.0
20260507054920 50 289 0.0 0.0 0.00 0.49 0.07 80 1012.9
20260507053846 50 289 0.0 0.0 0.00 0.49 0.07 80 1012.7
20260507052836 50 289 0.0 0.0 0.00 0.49 0.07 80 1012.7
20260507051846 50 289 0.0 0.0 0.00 0.49 0.07 80 1012.6
20260507050829 50 289 0.0 0.0 0.00 0.49 0.07 80 1012.5
20260507043615 50 289 0.0 0.0 0.00 0.49 0.07 79 1012.0
20260507042631 50 289 0.0 0.0 0.00 0.49 0.07 79 1011.9
20260507041605 50 289 0.0 0.0 0.00 0.49 0.07 79 1011.8
20260507040609 49 289 0.0 0.0 0.00 0.49 0.07 79 1011.7
20260507035551 49 289 0.0 0.0 0.00 0.49 0.07 79 1011.7
20260507034553 49 289 0.0 0.0 0.00 0.49 0.07 79 1011.6
20260507033527 49 289 0.0 0.0 0.00 0.49 0.07 79 1011.5
20260507032509 49 289 0.0 0.0 0.00 0.49 0.07 79 1011.4
20260507030415 49 279 1.0 7.0 0.00 0.49 0.07 79 1011.3
20260507024305 50 342 0.0 0.0 0.00 0.49 0.07 79 1011.1
20260507023323 50 342 0.0 0.0 0.00 0.49 0.07 79 1011.1
20260507022330 50 342 0.0 0.0 0.00 0.49 0.07 79 1011.0
20260507015057 50 342 0.0 0.0 0.03 0.49 0.07 78 1010.6
20260507012917 50 342 0.0 0.0 0.03 0.48 0.06 78 1010.6
20260507011851 50 342 0.0 0.0 0.03 0.48 0.05 78 1010.5
20260507010849 50 342 0.0 0.0 0.03 0.47 0.04 78 1010.4
20260507005842 50 339 0.0 4.0 0.03 0.47 0.04 78 1010.4
20260507004904 50 10 0.0 1.0 0.08 0.46 0.03 77 1010.4
20260507003840 50 16 0.0 0.0 0.00 0.44 0.02 78 1010.3
20260507002856 50 34 1.0 4.0 0.00 0.44 0.02 77 1010.2
20260507000707 51 22 0.0 3.0 0.00 0.44 0.02 77 1010.1
20260506234621 51 35 0.0 0.0 0.00 0.44 0.02 77 1010.1
20260506233644 51 35 0.0 0.0 0.00 0.44 0.02 77 1010.1
20260506232639 51 35 0.0 0.0 0.00 0.44 0.02 77 1010.1
20260506230440 52 35 0.0 0.0 0.00 0.44 0.02 77 1009.9
20260506224331 52 35 0.0 0.0 0.00 0.44 0.02 76 1009.8
20260506220015 53 35 0.0 0.0 0.09 0.42 0.00 75 1009.6
20260506215006 53 35 0.0 0.0 0.22 0.40 0.40 75 1009.5
20260506214012 53 35 0.0 0.0 0.18 0.37 0.37 75 1009.5
20260506213018 53 32 0.0 0.0 0.23 0.33 0.33 74 1009.4
20260506212025 53 19 1.0 6.0 0.20 0.31 0.30 74 1009.1
20260506211007 53 38 0.0 2.0 0.29 0.26 0.26 74 1009.0
20260506204827 54 254 3.0 11.0 0.34 0.10 0.11 74 1008.5
20260506203831 54 169 4.0 13.0 0.27 0.07 0.07 73 1008.5
20260506202855 54 222 4.0 15.0 0.00 0.01 0.00 72 1008.5
20260506201903 54 219 5.0 15.0 0.00 0.00 0.00 72 1008.3
20260506195709 54 201 5.0 13.0 0.00 0.02 0.00 72 1008.2
20260506194657 54 180 5.0 13.0 0.00 0.03 0.00 71 1008.2
20260506193652 54 177 4.0 13.0 0.00 0.03 0.00 71 1008.1
20260506192630 55 173 4.0 13.0 0.00 0.06 0.00 71 1007.9
20260506191558 55 196 4.0 12.0 0.00 0.14 0.00 70 1008.0
20260506190602 55 198 4.0 9.0 0.00 0.20 0.00 70 1007.9
20260506185611 56 179 3.0 9.0 0.00 0.25 0.00 69 1007.7
20260506183448 56 173 4.0 15.0 0.00 0.25 0.00 69 1007.4
20260506182434 57 205 4.0 15.0 0.00 0.25 0.00 69 1007.3
20260506181455 57 181 4.0 10.0 0.00 0.25 0.00 69 1007.3
20260506180514 57 170 4.0 11.0 0.00 0.25 0.00 68 1007.3
20260506175528 57 214 4.0 11.0 0.00 0.25 0.00 68 1007.1
20260506173441 58 166 4.0 14.0 0.00 0.25 0.00 67 1006.8
20260506171341 58 173 6.0 13.0 0.00 0.26 0.00 67 1006.6
20260506170323 58 189 5.0 12.0 0.00 0.26 0.00 66 1006.5
20260506165252 59 221 4.0 10.0 0.00 0.26 0.00 65 1006.5
20260506163143 60 164 4.0 11.0 0.00 0.26 0.00 63 1006.5
20260506161041 61 190 4.0 14.0 0.00 0.26 0.00 59 1006.4
20260506160011 62 165 3.0 9.0 0.00 0.26 0.00 57 1006.4
20260506153939 64 130 1.0 5.0 0.00 0.26 0.00 51 1006.2
20260506152913 64 155 1.0 4.0 0.00 0.26 0.00 50 1006.2
20260506151925 65 173 1.0 7.0 0.00 0.26 0.00 50 1006.1
20260506150933 65 171 2.0 6.0 0.00 0.26 0.00 49 1006.2
20260506144748 65 207 1.0 5.0 0.00 0.26 0.00 49 1006.1
20260506143751 65 209 0.0 0.0 0.00 0.26 0.00 50 1006.0
20260506142805 65 271 1.0 6.0 0.00 0.26 0.00 49 1005.9
20260506141829 64 266 1.0 7.0 0.00 0.26 0.00 50 1005.9
20260506140825 64 286 1.0 7.0 0.00 0.26 0.00 49 1005.9
20260506135759 64 234 1.0 5.0 0.00 0.27 0.00 49 1005.9
20260506133650 65 284 2.0 12.0 0.00 0.28 0.00 50 1006.1
20260506132650 66 270 3.0 12.0 0.00 0.29 0.00 50 1006.1
20260506130449 66 238 3.0 11.0 0.00 0.29 0.00 50 1006.0
20260506125442 65 257 1.0 7.0 0.00 0.29 0.00 51 1006.0
20260506124442 66 271 3.0 8.0 0.00 0.29 0.00 51 1006.0
20260506123440 66 277 1.0 11.0 0.00 0.29 0.00 49 1005.9
20260506121255 68 262 3.0 13.0 0.00 0.29 0.00 49 1005.9
20260506120232 67 251 1.0 11.0 0.00 0.29 0.00 49 1005.9
20260506115247 67 209 2.0 11.0 0.00 0.29 0.00 49 1006.0
20260506114232 66 268 3.0 8.0 0.00 0.29 0.00 50 1006.0
20260506113214 66 250 3.0 0.0 0.00 0.29 0.00 50 1006.1
20260506112217 65 259 2.0 7.0 0.00 0.29 0.00 52 1006.2
20260506111223 64 182 2.0 0.0 0.00 0.29 0.00 54 1006.4
20260506110239 65 267 3.0 9.0 0.00 0.29 0.00 52 1006.5
20260506105251 65 273 1.0 10.0 0.00 0.29 0.00 52 1006.5
20260506104220 64 262 3.0 10.0 0.00 0.29 0.00 54 1006.6